NIMBUS 2 DEB, 59969

Orbit data source: Space-Track

NIMBUS 2 DEB, 59969 is space debris in SSO originally from a launch on Sun, 15 May 1966 UTC launched from the Air Force Western Test Range (AFWTR). Debris objects in space refer to the collection of defunct objects orbiting the Earth. Examples of debris include non-operational satellites, rocket bodies, and fragments generated from explosions, collisions, or faulty payload assembly.

Loading next visibility...
Identifier
59969, 1966-040BY
Orbit
SSO
Country
Flag of USUS
Related business
Manufacturer
Unknown
Mission
Spacecraft
Bus & Motor
Unknown
Mass
Unknown
Launch date (UTC)
1966-05-15 (59 years ago)
Launch vehicle
Unknown
Launch site
Air Force Western Test Range (AFWTR)
Object type
Payload
Rocket body
Debris
Shape & HBR
Unknown shape, 0.1 m
Radar Cross Section
Small (<0.1 m²)

Expand to show TLE details & history
Last TLE update: 1 day ago

TLE from 1 day ago
0 NIMBUS 2 DEB
1 59969U 66040BY  25295.40827857  .00003617  00000-0  61356-2 0  9998
2 59969 100.1537  96.8270 0045639  40.2111 320.2381 13.45532781330650
Epoch: 2025-10-22T09:47Z
TLE epoch observation values (Epoch: 2025-10-22T09:47:55.268Z)
Latitude
-0.00005°
Longitude
-81.23559°
Altitude
1,065.366 km
Speed
7.332 km/s
True Right ascension
06h 27m 18s
True Declination
0° 00' 00"
Sunlit
Object was in daylight at epoch
Visualization orbit readout
Latitude
Unknown
Longitude
Unknown
Altitude
Unknown
Speed
Unknown
Apparent Right ascension
Unknown
Apparent Declination
Unknown
Sunlit
N/A
Visualization observer readout
Local Sidereal Time
06:04:30
Azimuth
Unknown
Elevation
Unknown
Doppler factor
Unknown
Orbital elements
Apogee altitude
1,120.137 km
Perigee altitude
1,052.005 km
Semi-major axis
7,464.208 km
Eccentricity
0.00456
Inclination
100.1537°
RAAN
96.827°
Arg. of periapsis
40.2111°
True anomaly
319.90213°
Mean anomaly
320.2381°
Eccentric anomaly
320.07026°
Mean motion
3.36564 °/min
Orbital period
106.96 mins
BSTAR
0.0061356
Loading maneuver chart data...
Computing Atmospheric mass density...
Loading historical data...
Loading historical data...
Loading historical data...
Loading historical data...
Loading historical data...
Loading historical data...
Loading historical data...

Documentation

Showing up to 5 results
|